Аэропорт
Уйташ (URML)

 URML / MCX
ЗЦ Ростов-на-Дону
Ростов-на-Дону (URRV)
Ростов-на-Дону (URRV)
 42.81680, 47.65230  / 12 ft

 URML 101730Z 16003MPS 9999 SCT///CB 24/17 Q1011 R14/01//70 NOSIG RMK QFE758/1011
 TAF URML 101100Z 1012/1021 13006G12MPS 9999 SCT050CB TEMPO 1012/1018 SCT013 BKN050CB BECMG 1018/1021 17003G08MPS
показать схемы

Аэропорт Махачкалы — Уйташ

 

 

Аэропорт Уйташ имени дважды Героя Советского Союза Амет-Хана Султана — аэропорт города Махачкала, столицы Дагестана, основной аэропорт республики. Аэропорт расположен в 4,5 км от города Каспийска и в 16,2 км от ближайшего микрорайона Махачкалы. Аэропорт Уйташ — первого класса, помимо гражданской авиации, используется авиацией ФСБ РФ и МВД РФ.

ВПП 14/32, 2640х45м, асфальтобетон.

Аэродром Уйташ способен принимать самолёты:
Airbus A320, Boeing 757, Ил-86
и все более легкие,
принимает вертолёты всех типов.

Максимальный взлетный вес воздушного судна 150 т.

 

Аэропорт Махачкалы обслуживают авиакомпании SCAT, Газпромавиа, РусЛайн, ВИМ-Авиа, ЮТэйр, Red Wings.



2020 © VATRUS division (Privacy Policy)